• In Belarus
  • List of Countries
  • For 7 days
  • Water Temperature
  • Satellite Maps
  • Weather Map
  • Weather Widgets
  • user-avatar
    Login

    Hourly Weather Herāt

    Today, 17 December, Sunday

    Time Temperature Precipitation Wind Pressure Humidity
    00:00 +6°C° 0 mm 2 mps 683 mmHg 33%
    01:00 +6°C° 0 mm 2 mps 683 mmHg 33%
    02:00 +6°C° 0 mm 2 mps 683 mmHg 33%
    03:00 +6°C° 0 mm 2 mps 683 mmHg 34%
    04:00 +6°C° 0 mm 2 mps 683 mmHg 34%
    05:00 +6°C° 0 mm 2 mps 683 mmHg 35%
    06:00 +6°C° 0 mm 2 mps 683 mmHg 36%
    07:00 +6°C° 0 mm 2 mps 683 mmHg 37%
    08:00 +8°C° 0 mm 2 mps 684 mmHg 34%
    09:00 +10°C° 0 mm 2 mps 684 mmHg 31%
    10:00 +12°C° 0 mm 3 mps 685 mmHg 28%
    11:00 +12°C° 0 mm 3 mps 684 mmHg 27%
    12:00 +13°C° 0 mm 4 mps 684 mmHg 26%
    13:00 +14°C° 0 mm 4 mps 684 mmHg 25%
    14:00 +14°C° 0 mm 3 mps 684 mmHg 25%
    15:00 +14°C° 0 mm 3 mps 683 mmHg 26%
    16:00 +14°C° 0 mm 2 mps 683 mmHg 26%
    17:00 +13°C° 0 mm 2 mps 683 mmHg 28%
    18:00 +12°C° 0 mm 2 mps 683 mmHg 30%
    19:00 +11°C° 0 mm 1 mps 684 mmHg 32%
    20:00 +10°C° 0 mm 2 mps 683 mmHg 33%
    21:00 +9°C° 0 mm 2 mps 683 mmHg 35%
    22:00 +8°C° 0 mm 2 mps 683 mmHg 37%
    23:00 +8°C° 0 mm 2 mps 683 mmHg 38%

    Tomorrow, 18 December, Monday

    Time Temperature Precipitation Wind Pressure Humidity
    00:00 +8°C° 0 mm 2 mps 683 mmHg 40%
    01:00 +7°C° 0 mm 2 mps 683 mmHg 41%
    02:00 +7°C° 0 mm 2 mps 683 mmHg 43%
    03:00 +7°C° 0 mm 2 mps 683 mmHg 45%
    04:00 +7°C° 0 mm 2 mps 683 mmHg 46%
    05:00 +7°C° 0 mm 2 mps 683 mmHg 47%
    06:00 +6°C° 0 mm 2 mps 683 mmHg 48%
    07:00 +6°C° 0 mm 2 mps 683 mmHg 49%
    08:00 +9°C° 0 mm 2 mps 684 mmHg 43%
    09:00 +12°C° 0 mm 2 mps 685 mmHg 36%
    10:00 +13°C° 0 mm 3 mps 685 mmHg 29%
    11:00 +14°C° 0 mm 3 mps 685 mmHg 27%
    12:00 +15°C° 0 mm 4 mps 685 mmHg 25%
    13:00 +17°C° 0 mm 4 mps 684 mmHg 23%
    14:00 +17°C° 0 mm 4 mps 684 mmHg 23%
    15:00 +16°C° 0 mm 3 mps 684 mmHg 24%
    16:00 +16°C° 0 mm 3 mps 683 mmHg 25%
    17:00 +14°C° 0 mm 2 mps 683 mmHg 28%
    18:00 +13°C° 0 mm 2 mps 683 mmHg 30%
    19:00 +11°C° 0 mm 1 mps 683 mmHg 33%
    20:00 +11°C° 0 mm 1 mps 683 mmHg 34%
    21:00 +11°C° 0 mm 1 mps 683 mmHg 35%
    22:00 +9°C° 0 mm 2 mps 683 mmHg 35%
    23:00 +9°C° 0 mm 2 mps 683 mmHg 37%

    Day after tomorrow, 19 December, Tuesday

    Time Temperature Precipitation Wind Pressure Humidity
    00:00 +9°C° 0 mm 2 mps 682 mmHg 38%
    01:00 +9°C° 0 mm 2 mps 682 mmHg 39%
    02:00 +8°C° 0 mm 2 mps 682 mmHg 41%
    03:00 +8°C° 0 mm 2 mps 682 mmHg 42%
    04:00 +8°C° 0 mm 2 mps 682 mmHg 44%
    05:00 +8°C° 0 mm 2 mps 682 mmHg 44%
    06:00 +8°C° 0 mm 2 mps 683 mmHg 45%
    07:00 +8°C° 0 mm 3 mps 683 mmHg 45%
    08:00 +10°C° 0 mm 3 mps 684 mmHg 39%
    09:00 +12°C° 0 mm 3 mps 684 mmHg 33%
    10:00 +14°C° 0 mm 3 mps 685 mmHg 26%
    11:00 +16°C° 0 mm 3 mps 685 mmHg 25%
    12:00 +16°C° 0 mm 3 mps 684 mmHg 24%
    13:00 +17°C° 0 mm 4 mps 684 mmHg 23%
    14:00 +17°C° 0 mm 3 mps 684 mmHg 24%
    15:00 +16°C° 0 mm 3 mps 683 mmHg 25%
    16:00 +16°C° 0 mm 2 mps 683 mmHg 26%
    17:00 +15°C° 0 mm 2 mps 683 mmHg 29%
    18:00 +13°C° 0 mm 2 mps 683 mmHg 32%
    19:00 +12°C° 0 mm 2 mps 683 mmHg 35%
    20:00 +10°C° 0 mm 2 mps 683 mmHg 36%
    21:00 +10°C° 0 mm 2 mps 683 mmHg 37%
    22:00 +10°C° 0 mm 3 mps 683 mmHg 37%
    23:00 +9°C° 0 mm 3 mps 683 mmHg 37%

    20 December, Wednesday

    Time Temperature Precipitation Wind Pressure Humidity
    00:00 +9°C° 0 mm 3 mps 683 mmHg 38%
    01:00 +9°C° 0 mm 3 mps 683 mmHg 38%
    02:00 +9°C° 0 mm 3 mps 683 mmHg 38%
    03:00 +8°C° 0 mm 3 mps 683 mmHg 38%
    04:00 +8°C° 0 mm 3 mps 683 mmHg 38%
    05:00 +8°C° 0 mm 3 mps 683 mmHg 37%
    06:00 +8°C° 0 mm 3 mps 684 mmHg 37%
    07:00 +8°C° 0 mm 3 mps 684 mmHg 37%
    08:00 +10°C° 0 mm 3 mps 685 mmHg 32%
    09:00 +12°C° 0 mm 3 mps 686 mmHg 28%
    10:00 +14°C° 0 mm 3 mps 686 mmHg 24%
    11:00 +16°C° 0 mm 3 mps 686 mmHg 24%
    12:00 +16°C° 0 mm 3 mps 686 mmHg 25%
    13:00 +17°C° 0 mm 3 mps 686 mmHg 25%
    14:00 +17°C° 0 mm 3 mps 685 mmHg 26%
    15:00 +16°C° 0 mm 3 mps 685 mmHg 28%
    16:00 +16°C° 0 mm 2 mps 685 mmHg 29%
    17:00 +14°C° 0 mm 2 mps 685 mmHg 32%
    18:00 +13°C° 0 mm 2 mps 685 mmHg 36%
    19:00 +12°C° 0 mm 2 mps 686 mmHg 39%
    20:00 +11°C° 0 mm 1 mps 686 mmHg 40%
    21:00 +11°C° 0 mm 1 mps 686 mmHg 41%
    22:00 +10°C° 0 mm 1 mps 686 mmHg 41%
    23:00 +10°C° 0 mm 1 mps 686 mmHg 42%

    21 December, Thursday

    Time Temperature Precipitation Wind Pressure Humidity
    00:00 +10°C° 0 mm 1 mps 686 mmHg 43%
    01:00 +9°C° 0 mm 1 mps 685 mmHg 43%
    02:00 +9°C° 0 mm 1 mps 685 mmHg 44%
    03:00 +9°C° 0 mm 1 mps 685 mmHg 44%
    04:00 +7°C° 0 mm 2 mps 685 mmHg 45%
    05:00 +8°C° 0 mm 1 mps 685 mmHg 45%
    06:00 +8°C° 0 mm 1 mps 685 mmHg 45%
    07:00 +8°C° 0 mm 1 mps 685 mmHg 46%
    08:00 +10°C° 0 mm 1 mps 686 mmHg 40%
    09:00 +12°C° 0 mm 1 mps 687 mmHg 34%
    10:00 +15°C° 0 mm 1 mps 688 mmHg 27%
    11:00 +15°C° 0 mm 1 mps 687 mmHg 26%
    12:00 +16°C° 0 mm 1 mps 686 mmHg 24%
    13:00 +18°C° 0 mm 1 mps 686 mmHg 23%
    14:00 +18°C° 0 mm 1 mps 685 mmHg 23%
    15:00 +16°C° 0 mm 1 mps 685 mmHg 24%
    16:00 +16°C° 0 mm 1 mps 684 mmHg 25%
    17:00 +14°C° 0 mm 1 mps 684 mmHg 28%
    18:00 +13°C° 0 mm 1 mps 684 mmHg 31%
    19:00 +11°C° 0 mm 1 mps 684 mmHg 34%
    20:00 +11°C° 0 mm 1 mps 684 mmHg 34%
    21:00 +11°C° 0 mm 1 mps 683 mmHg 34%
    22:00 +10°C° 0 mm 2 mps 683 mmHg 34%
    23:00 +10°C° 0 mm 2 mps 683 mmHg 34%

    22 December, Friday

    Time Temperature Precipitation Wind Pressure Humidity
    00:00 +10°C° 0 mm 2 mps 683 mmHg 35%
    01:00 +10°C° 0 mm 2 mps 682 mmHg 35%
    02:00 +9°C° 0 mm 2 mps 682 mmHg 35%
    03:00 +9°C° 0 mm 2 mps 682 mmHg 36%
    04:00 +9°C° 0 mm 2 mps 682 mmHg 36%
    05:00 +9°C° 0 mm 3 mps 682 mmHg 36%
    06:00 +9°C° 0 mm 3 mps 682 mmHg 35%
    07:00 +9°C° 0 mm 3 mps 682 mmHg 35%
    08:00 +11°C° 0 mm 4 mps 682 mmHg 31%
    09:00 +13°C° 0 mm 4 mps 682 mmHg 26%
    10:00 +15°C° 0 mm 4 mps 683 mmHg 22%
    11:00 +16°C° 0 mm 5 mps 682 mmHg 21%
    12:00 +17°C° 0 mm 5 mps 682 mmHg 20%
    13:00 +19°C° 0 mm 6 mps 681 mmHg 19%
    14:00 +19°C° 0 mm 5 mps 681 mmHg 20%
    15:00 +17°C° 0 mm 5 mps 680 mmHg 21%
    16:00 +17°C° 0 mm 5 mps 680 mmHg 22%
    17:00 +17°C° 0 mm 4 mps 680 mmHg 24%
    18:00 +15°C° 0 mm 4 mps 680 mmHg 25%
    19:00 +14°C° 0 mm 4 mps 680 mmHg 27%
    20:00 +13°C° 0 mm 4 mps 679 mmHg 27%
    21:00 +13°C° 0 mm 5 mps 679 mmHg 27%
    22:00 +13°C° 0 mm 5 mps 679 mmHg 28%
    23:00 +13°C° 0 mm 5 mps 679 mmHg 28%
    Show more

    XHprof extension not loaded